Salt Lake City, UT

10:03 AM MST on February 12, 2016 (GMT -0700)
Salt Lake City International

Weather History for KSLC - May, 2013

Change the Weather History Date:

Wednesday, May 1, 2013

  Actual Average Record
Temperature  
Mean Temperature 45 °F 55 °F  
Max Temperature 54 °F 67 °F 87 °F (1981)
Min Temperature 36 °F 44 °F 27 °F (1967)
Degree Days  
Heating Degree Days 20 10  
Month to date heating degree days 20 10  
Since 1 July heating degree days 5338 5366  
Cooling Degree Days 0 0  
Month to date cooling degree days 0 0  
Year to date cooling degree days 0 4  
Moisture  
Dew Point 18 °F    
Average Humidity 39    
Maximum Humidity 59    
Minimum Humidity 18    
Precipitation  
Precipitation T in 0.07 in 0.79 in (1874)
Month to date precipitation T 0.07  
Year to date precipitation 4.86 6.35  
Snow  
Snow T in 0.00 in 0.90 in (1988)
Month to date snowfall T 0.0  
Since 1 July snowfall 69.9 55.9  
Snow Depth 0.00 in    
Sea Level Pressure  
Sea Level Pressure 30.33 in    
Wind  
Wind Speed 11 mph (NW)    
Max Wind Speed 22 mph    
Max Gust Speed 30 mph    
Visibility 10 miles    
Events      
T = Trace of Precipitation, MM = Missing Value Source: NWS Daily Summary

Daily Weather History Graph

Daily Weather History Graph

Search for Another Location

Airport or City:

Trip Planner

Search our weather history database for the weather conditions in past years. The results will help you decide how hot, cold, wet, or windy it might be!

Date:

Astronomy

May. 01, 2013 Rise Set
Actual Time 6:25 AM MDT 8:24 PM MDT
Civil Twilight 5:56 AM MDT 8:54 PM MDT
Nautical Twilight 5:19 AM MDT 9:30 PM MDT
Astronomical Twilight 4:40 AM MDT 10:10 PM MDT
Moon 1:36 AM MDT (5/1) 12:08 PM MDT (5/1)
Length of Visible Light 14h 58m
Length of Day
13h 58m
Waning Gibbous, 58% of the Moon is Illuminated
May 1
Waning Gibbous
May 2
Last Quarter
May 9
New
May 17
First Quarter
May 24
Full

Hourly Weather History & Observations

Time (MDT) Temp. Windchill Dew Point Humidity Pressure Visibility Wind Dir Wind Speed Gust Speed Precip Events Conditions
12:53 AM 42.8 °F 36.6 °F 12.2 °F 29% 30.12 in 10.0 mi NNW 11.5 mph - N/A   Partly Cloudy
1:53 AM 41.0 °F 34.7 °F 15.1 °F 35% 30.10 in 10.0 mi NNW 10.4 mph - N/A   Clear
2:53 AM 37.9 °F 32.1 °F 14.0 °F 38% 30.12 in 10.0 mi North 8.1 mph - N/A   Partly Cloudy
3:53 AM 37.9 °F 31.5 °F 15.1 °F 39% 30.12 in 10.0 mi North 9.2 mph - N/A   Mostly Cloudy
4:53 AM 39.0 °F 36.8 °F 15.1 °F 38% 30.14 in 10.0 mi West 3.5 mph - N/A   Scattered Clouds
5:53 AM 41.0 °F 35.2 °F 15.1 °F 35% 30.17 in 10.0 mi NW 9.2 mph - N/A   Mostly Cloudy
6:53 AM 39.9 °F 37.8 °F 23.0 °F 51% 30.19 in 8.0 mi NNW 3.5 mph - 0.00 in   Unknown
7:53 AM 39.0 °F 31.8 °F 25.0 °F 57% 30.25 in 10.0 mi North 11.5 mph - 0.00 in   Mostly Cloudy
8:53 AM 39.0 °F 34.8 °F 28.9 °F 67% 30.29 in 10.0 mi ESE 5.8 mph - N/A   Mostly Cloudy
9:53 AM 42.8 °F 39.3 °F 26.6 °F 53% 30.33 in 10.0 mi Variable 5.8 mph - N/A   Mostly Cloudy
10:53 AM 44.1 °F 38.6 °F 25.0 °F 47% 30.33 in 10.0 mi WNW 10.4 mph - N/A   Mostly Cloudy
11:53 AM 44.6 °F 38.1 °F 24.8 °F 46% 30.37 in 10.0 mi North 13.8 mph 17.3 mph N/A   Mostly Cloudy
12:53 PM 48.9 °F - 24.1 °F 38% 30.36 in 10.0 mi NW 16.1 mph 21.9 mph N/A   Scattered Clouds
1:53 PM 50.0 °F - 19.4 °F 30% 30.40 in 10.0 mi NNW 18.4 mph 26.5 mph N/A   Scattered Clouds
2:53 PM 52.0 °F - 16.0 °F 24% 30.39 in 10.0 mi NW 15.0 mph 23.0 mph N/A   Scattered Clouds
3:53 PM 53.1 °F - 17.1 °F 24% 30.39 in 10.0 mi WNW 17.3 mph 29.9 mph N/A   Scattered Clouds
4:53 PM 53.6 °F - 10.4 °F 18% 30.41 in 10.0 mi NW 15.0 mph - N/A   Scattered Clouds
5:53 PM 53.1 °F - 12.0 °F 20% 30.40 in 10.0 mi NW 17.3 mph 23.0 mph N/A   Partly Cloudy
6:53 PM 52.0 °F - 15.1 °F 23% 30.41 in 10.0 mi WNW 16.1 mph 20.7 mph N/A   Partly Cloudy
7:53 PM 50.0 °F - 17.1 °F 27% 30.43 in 10.0 mi West 13.8 mph - N/A   Partly Cloudy
8:53 PM 48.0 °F - 17.1 °F 29% 30.46 in 10.0 mi WNW 9.2 mph - N/A   Partly Cloudy
9:53 PM 46.0 °F 43.9 °F 19.0 °F 34% 30.49 in 10.0 mi NNE 4.6 mph - N/A   Clear
10:53 PM 43.0 °F 41.3 °F 15.1 °F 32% 30.51 in 10.0 mi NNW 3.5 mph - N/A   Clear
11:53 PM 43.0 °F - 16.0 °F 34% 30.53 in 10.0 mi Calm Calm - N/A   Clear